Home   Weather   Yaoundé   Past weeks

Flag for Cameroon Past Weather in Yaoundé, Cameroon — Yesterday and Last 2 Weeks

70 °F


Feels Like: 70 °F
Forecast: 69 / 79 °F
Wind: 6 mph from West

Location: Yaounde Airport

Current Time: Oct 28, 2016 at 3:54:58 AM

Latest Report: Oct 28, 2016 at 3:00 AM

Visibility: 1 mi

Pressure: 29.95 "Hg (27.56 "Hg at 717m altitude)

Humidity: 100%

Dew Point: 70 °F

Location of YaoundéLocation

Past Weather in Yaoundé — Graph


Yaoundé Temperature Yesterday

Maximum temperature yesterday: 81 °F (at 11:00 AM)
Minimum temperature yesterday: 68 °F (at 12:00 AM)
Average temperature yesterday: 72 °F

High & Low Weather Summary for the Past Weeks

High90 °F (Oct 22, 3:00 PM)100% (Oct 13, 3:00 AM)30.15 "Hg (Oct 13, 3:00 AM)
Low66 °F (Oct 20, 3:00 AM)52% (Oct 22, 3:00 PM)29.83 "Hg (Oct 25, 3:00 PM)
Average74 °F87%30.00 "Hg
* Reported Oct 13 3:00 AM — Oct 28 2:00 AM, Yaoundé, Weather by CustomWeather, © 2016

Note: Actual official high and low records may vary slightly from our data, if they occured in-between our weather recording intervals... More about our weather records


Yaoundé Weather History for the Previous 24 Hours

Scroll right to see more
Time TempWeatherWind HumidityBarometerVisibility
2:00 AM
Fri, Oct 28
70 °FFog.6 mph100%29.98 "Hg1 mi
1:00 AM70 °FPassing clouds.2 mph94%30.01 "Hg4 mi
12:00 AM70 °FFog.3 mph94%30.01 "Hg2 mi
11:00 PM
Thu, Oct 27
70 °FFog.3 mph94%30.01 "Hg2 mi
10:00 PM70 °FFog.3 mph100%30.01 "Hg2 mi
9:00 PM70 °FPassing clouds.No wind100%30.01 "Hg4 mi
8:00 PM72 °FPassing clouds.3 mph94%29.98 "Hg4 mi
7:00 PM72 °FPassing clouds.No wind94%29.95 "Hg4 mi
6:00 PM73 °FThunderstorms. Passing clouds.1 mph94%29.92 "Hg5 mi
5:00 PM75 °FThunderstorms. Scattered clouds.No wind89%29.92 "Hg5 mi
4:00 PM75 °FThunderstorms. Scattered clouds.1 mph89%29.92 "HgN/A
3:00 PM73 °FThunderstorms. Broken clouds.5 mph89%29.92 "Hg5 mi
2:00 PM70 °FThunderstorms. Broken clouds.1 mph88%29.95 "Hg4 mi
1:00 PM81 °FPartly sunny.3 mph74%29.95 "HgN/A
12:00 PM81 °FPartly sunny.3 mph74%29.98 "HgN/A
11:00 AM81 °FPartly sunny.3 mph70%30.01 "HgN/A
10:00 AM77 °FPartly sunny.3 mph79%30.01 "HgN/A
9:00 AM75 °FPartly sunny.3 mph83%30.01 "HgN/A
8:00 AM70 °FPartly sunny.3 mph100%30.01 "Hg5 mi
7:00 AM68 °FFog.No wind100%29.98 "Hg1 mi
6:00 AM68 °FPassing clouds.2 mph94%29.98 "Hg5 mi
5:00 AM68 °FPartly cloudy.3 mph100%29.95 "Hg4 mi
4:00 AM68 °FFog.3 mph100%29.95 "Hg1 mi
3:00 AM68 °FFog.3 mph100%29.95 "Hg0 mi
Weather by CustomWeather, © 2016

See weather overviewHow to use our weather pages